This is the latest recevied weather packets stored in our database for station/object SV5DDT-12. If no packets are shown the sender has not sent any weather packets the latest 10 day(s).
| Time | Temp. | Humidity | Pressure | Rain* | Wind** | Luminosity | Snow |
|---|---|---|---|---|---|---|---|
| 1777803298 | 22.22° C | 47% | 1007.7 hPa | - | - | - | - |
| 1777802398 | 22.78° C | 48% | 1008 hPa | - | - | - | - |
| 1777801497 | 22.78° C | 49% | 1008 hPa | - | - | - | - |
| 1777800597 | 22.78° C | 49% | 1008 hPa | - | - | - | - |
| 1777799697 | 22.78° C | 50% | 1007.9 hPa | - | - | - | - |
| 1777798797 | 22.78° C | 50% | 1008 hPa | - | - | - | - |
| 1777797897 | 22.78° C | 52% | 1008 hPa | - | - | - | - |
| 1777796997 | 22.78° C | 52% | 1008 hPa | - | - | - | - |
| 1777796096 | 22.78° C | 53% | 1008.1 hPa | - | - | - | - |
| 1777795195 | 22.78° C | 54% | 1008.1 hPa | - | - | - | - |
| 1777794295 | 22.78° C | 54% | 1008.2 hPa | - | - | - | - |
| 1777793395 | 22.78° C | 54% | 1008.2 hPa | - | - | - | - |
| 1777792495 | 22.78° C | 54% | 1008.2 hPa | - | - | - | - |
| 1777791595 | 22.78° C | 53% | 1008 hPa | - | - | - | - |
| 1777790695 | 22.78° C | 52% | 1008.2 hPa | - | - | - | - |
| 1777789795 | 22.78° C | 52% | 1008.1 hPa | - | - | - | - |
| 1777788895 | 22.78° C | 52% | 1007.9 hPa | - | - | - | - |
| 1777787994 | 22.22° C | 51% | 1008.1 hPa | - | - | - | - |
| 1777787094 | 22.22° C | 51% | 1008.2 hPa | - | - | - | - |
| 1777786194 | 22.78° C | 54% | 1008.2 hPa | - | - | - | - |
| 1777785294 | 22.78° C | 53% | 1008 hPa | - | - | - | - |
| 1777784394 | 22.78° C | 52% | 1008 hPa | - | - | - | - |
| 1777783494 | 22.78° C | 51% | 1008.1 hPa | - | - | - | - |
| 1777782594 | 22.78° C | 52% | 1007.9 hPa | - | - | - | - |
| 1777781694 | 22.78° C | 56% | 1008.1 hPa | - | - | - | - |
* Rain since midnight (hover to see other rain measurements)
** Current wind speed in m/s (hover to see current wind gust speed)